METEOSAT 5 (MOP 2) 1 21140U 91015B 12033.46466423 -.00000054 00000-0 10000-3 0 9633 2 21140 012.8461 038.6515 0002864 133.4245 226.6562 00.98450056 78531 NOAA 12 1 21263U 91032A 12036.52648919 .00000038 00000-0 34837-4 0 2932 2 21263 098.7384 058.7522 0013042 224.4119 135.6015 14.25475912 77653 METEOSAT 6 1 22912U 93073B 12033.39042075 -.00000270 00000-0 00000+0 0 4496 2 22912 010.4581 048.5075 0002422 040.1667 319.9166 00.98985856 65060 NOAA 14 1 23455U 94089A 12036.57227572 .00000024 00000-0 35952-4 0 7765 2 23455 098.8338 121.7110 0009163 341.9905 018.0943 14.13874621882058 HIMAWARI 5 (GMS 5) 1 23522U 95011B 12035.16686284 +.00000085 +00000-0 +10000-3 0 06839 2 23522 009.6798 051.5027 0010200 355.3208 004.7585 00.99404426061503 GOES 10 1 24786U 97019A 12034.45460630 -.00000248 00000-0 10000-3 0 2173 2 24786 005.7939 062.0716 0007182 121.0553 239.0988 00.99101307 54052 ORBVIEW 2 (SEASTAR) 1 24883U 97037A 12036.92420255 .00000184 00000-0 83662-4 0 6463 2 24883 098.3991 159.3969 0002842 132.9681 227.1749 14.32397923771464 METEOSAT 7 1 24932U 97049B 12036.85838909 .00000062 00000-0 00000+0 0 9550 2 24932 007.4188 057.9338 0000588 223.8702 220.1881 01.00267249 52853 NOAA 15 1 25338U 98030A 12037.54856305 .00000198 00000-0 10319-3 0 1302 2 25338 098.6788 025.7768 0011324 128.2917 231.9282 14.25027718714102 GOES 11 1 26352U 00022A 12028.55393675 .00000012 00000-0 00000+0 0 6762 2 26352 000.9737 138.5801 0001710 342.5316 238.8776 00.99042364 42986 FENGYUN 2B 1 26382U 00032A 12037.19863737 .00000124 00000-0 10000-3 0 4809 2 26382 006.5873 060.6923 0002340 255.7662 104.3355 01.00083721 42515 NOAA 16 1 26536U 00055A 12037.51644503 .00000367 00000-0 22263-3 0 6141 2 26536 099.1139 077.4998 0011347 095.0167 265.2313 14.12703929586441 GOES 12 1 26871U 01031A 12037.27232494 -.00000286 00000-0 10000-3 0 4418 2 26871 001.9623 074.4414 0001669 279.3375 179.9191 01.00283904 38677 FENGYUN 1D 1 27431U 02024B 12036.92505834 -.00000043 00000-0 -57377-7 0 8605 2 27431 098.7463 007.2580 0014964 201.9153 158.1378 14.09348110500552 NOAA 17 1 27453U 02032A 12036.40127819 .00000234 00000-0 11867-3 0 5869 2 27453 098.3539 070.0579 0011721 181.5621 178.5532 14.24390702499852 MSG 1 1 27509U 02040B 12034.92353891 .00000067 00000-0 00000+0 0 8473 2 27509 001.0787 056.3783 0000763 107.1344 311.9408 01.00279095 34642 KALPANA 1 (METSAT 1) 1 27525U 02043A 12033.69165007 -.00000076 00000-0 10000-3 0 4020 2 27525 002.5598 071.8283 0006936 210.1377 173.2392 01.00272626 34433 INSAT 3A 1 27714U 03013A 12036.81270387 -.00000258 00000-0 10000-3 0 9569 2 27714 000.0739 252.5668 0006188 053.0680 215.7630 01.00271964 32369 FENGYUN 2C 1 28451U 04042A 12037.04328581 -.00000359 00000-0 10000-3 0 3338 2 28451 003.6793 067.5176 0001456 317.2428 250.0344 01.00274673 26719 MTSAT-1R 1 28622U 05006A 12032.53531311 -.00000276 00000-0 10000-3 0 6145 2 28622 000.0368 266.9752 0000550 067.9401 128.9585 01.00274142 25379 NOAA 18 1 28654U 05018A 12036.45062263 .00000048 00000-0 51539-4 0 630 2 28654 099.0289 353.5558 0014313 165.0914 195.0691 14.11599467345837 MSG 2 1 28912U 05049B 12034.04089951 .00000003 00000-0 00000+0 0 225 2 28912 000.3930 358.0569 0002311 213.6159 295.9788 01.00281076 22488 MTSAT-2 1 28937U 06004A 12036.67904065 -.00000242 00000-0 10000-3 0 1027 2 28937 000.0152 154.7288 0002153 181.5465 188.4734 01.00272988 21897 FORMOSAT 3A 1 29047U 06011A 12036.77415555 .00000004 00000-0 18257-4 0 7204 2 29047 071.9771 219.7257 0052912 285.5956 073.9315 14.27385709305202 FORMOSAT 3B 1 29048U 06011B 12036.71845983 .00000392 00000-0 17471-3 0 8039 2 29048 071.9704 134.1638 0046649 239.3376 120.3151 14.27403602307676 FORMOSAT 3C 1 29049U 06011C 12036.72757518 .00000363 00000-0 16364-3 0 7461 2 29049 072.0218 288.5992 0036840 291.1487 068.5698 14.27415953303450 FORMOSAT 3D 1 29050U 06011D 12037.52769296 .00001124 00000-0 26646-3 0 630 2 29050 072.0166 016.5543 0051717 105.0933 255.5900 14.55104635311449 FORMOSAT 3E 1 29051U 06011E 12036.83219366 .00000375 00000-0 16522-3 0 8011 2 29051 072.0043 195.7572 0069758 164.4802 195.8474 14.27412553306057 FORMOSAT 3F 1 29052U 06011F 12036.72778968 .00000362 00000-0 16273-3 0 8220 2 29052 072.0357 261.0986 0042694 259.6724 099.9579 14.27452182304344 GOES 13 1 29155U 06018A 12037.16286782 -.00000251 00000-0 10000-3 0 9386 2 29155 000.4141 080.7904 0001882 316.9298 082.0487 01.00269720 20928 METOP-A 1 29499U 06044A 12037.35982003 .00000050 00000-0 42758-4 0 6486 2 29499 098.7196 098.3526 0002112 077.2604 282.8831 14.21476337274991 FENGYUN 2D 1 29640U 06053A 12036.79255730 -.00000200 00000-0 10000-3 0 3479 2 29640 002.0605 076.8508 0001757 324.1585 106.3078 01.00271468 18966 FENGYUN 3A 1 32958U 08026A 12037.36968270 .00000041 00000-0 40000-4 0 5907 2 32958 098.6609 108.8754 0000378 129.8291 230.2918 14.19709252191589 NOAA 19 1 33591U 09005A 12036.42878303 -.00000084 00000-0 -21956-4 0 2514 2 33591 098.8522 337.9494 0014834 038.8083 321.4146 14.11288607154285 GOES 14 1 35491U 09033A 12036.52036844 -.00000086 00000-0 00000+0 0 3191 2 35491 000.0950 247.9196 0003231 191.5020 137.4959 01.00271836 9581 METEOR-M 1 35865U 09049A 12037.55693129 -.00000031 00000-0 56115-5 0 1284 2 35865 098.6734 094.2414 0003297 076.5656 283.5890 14.21854829123898 GOES 15 1 36411U 10008A 12037.40142603 .00000088 00000-0 00000+0 0 9273 2 36411 000.0310 256.8932 0000950 318.5862 289.9712 01.00262820 7098 COMS 1 1 36744U 10032A 12034.27533397 -.00000342 00000-0 10000-3 0 3043 2 36744 000.0257 064.0583 0000966 262.4732 033.6166 01.00269627 6030 FENGYUN 3B 1 37214U 10059A 12037.47119403 .00000040 00000-0 39501-4 0 3804 2 37214 098.7474 340.8655 0002005 065.8987 294.2394 14.19743964 65090 ELEKTRO-L 1 37344U 11001A 12036.81085147 -.00000097 00000-0 10000-3 0 2691 2 37344 000.0466 111.7427 0000913 350.7917 040.7607 01.00271856 3880